Find Starlink 32499

NORAD ID: 61959 Int'l Des: 2024-210 Owner: SPXS Country: US Constellation: starlink operational
LEOCIRCULAR

現在のビュー

3D地球を読み込み中...

About Starlink 32499

Starlink 32499 (NORAD 61959) is a starlink constellation satellite (v2 mini) launched Nov 14, 2024 by SPXS of US. It operates in LEO, CIRCULAR orbit with a mass of 730.00 kg.

次回通過

Passes for default location (London). Set your location on the main map for personalized predictions.

高度履歴

Loading altitude history...

軌道要素

1 61959U 24210A 26265.36568659 .00018008 00000-0 66227-3 0 9991
2 61959 43.0002 148.7020 0001336 267.4419 92.6280 15.27582850105005
Epoch: Sep 22, 2026 • Age: 21 hours

現在のステータス

高度 488.3 km
遠地点 / 近地点 N/A
速度 7.62 km/s
衛星直下点 -24.08°S, 101.76°W
打ち上げ日 Nov 14, 2024
運用期間 1.8 years
タイプ internet

技術仕様

分類 Payload
質量 730.00 kg
乾燥質量 700.00 kg
長さ 0.30 m
スパン 29.00 m
形状 ? Box + pan
製造者 SPXS
バスタイプ Starlink V2M
フェーズステータス In Orbit
所有者/国 SPXS/US

Most Searched